Probability
0 0 0 0 0 0 0 0 0 0 0 0 0 0 0 0 0 0 0 0 0 0 0 0 0 0 0 0 0 0 0 0 0 0 0 0 0 0 0 0 0 0 0
0 0 0 0 0 0 0 0 0 0 0 0 0 0 0 0 0 0 0 0 0 0 0 0 0 0 0 0 0 0 0 0 0 0 0 0 0 0 0 0 0 0 0
0 0 0 0 0 0 0 0 0 0 0 0 0 0 0 0 0 0 0 0 0 0 0 0 0 0 0 0 0 0 0 0 0 0 0 0 0 0 0 0 0 0 0
0 0 0 0 0 0 0 0 0 0 0 0 0 0 0 0 0 0 0 0 0 0 0 0 0 0 0 0 0 0 0 0 0 0 0 0 0 0 0 0 0 0 0
0 0 0 0 0 0 0 0 0 0 0 0 0 0 0 0 0 0 0 0 0 0 0 0 0 0 0 0 0 0 0 0 0 0 0 0 0 0 0 0 0 0 0
0 0 0 0 0 0 0 0 0 0 0 0 0 0 0 0 0 0 0 0 0 0 0 0 0 0 0 0 0 0 0 0 0 0 0 0 0 0 0 0 0 0 0
0 0 0 0 0 0 0 0 0 0 0 0 0 0 0 0 0 0 0 0 0 0 0 0 0 0 0 0 0 0 0 0 0 0 0 0 0 0 0 0 0 0 0
0 0 0 0 0 0 0 0 0 0 0 0 0 0 0 0 0 0 0 0 0 0 0 0 0 0 0 0 0 0 0 0 0 0 0 0 0 0 0 0 0 0 0
0 0 0 0 0 0 0 0 0 0 0 0 0 0 0 0 0 0 0 0 0 0 0 0 0 0 0 0 0 0 0 0 0 0 0 0 0 0 0 0 0 0 0
0 0 0 0 0 0 0 0 0 0 0 0 0 0 0 0 0 0 0 0 0 0 0 0 0 0 0 0 0 0 0 0 0 0 0 0 0 0 0 0 0 0 0
0 0 0 0 0 0 0 0 0 0 0 0 0 0 0 0 0 0 0 0 0 0 0 0 0 0 0 0 0 0 0 0 0 0 0 0 0 0 0 0 0 0 0
0 0 0 0 0 0 0 0 0 0 0 0 0 0 0 0 0 0 0 0 0 0 0 0 0 0 0 0 0 0 0 0 0 0 0 0 0 0 0 0 0 0 0
0 0 0 0 0 0 0 0 0 0 0 0 0 0 0 0 0 0 0 0 0 0 0 0 0 0 0 0 0 0 0 0 0 0 0 0 0 0 0 0 0 0 0
0 0 0 0 0 0 0 0 0 0 0 0 0 0 0 0 0 0 0 0 0 0 0 0 0 0 0 0 0 0 0 0 0 0 0 0 0 0 0 0 0 0 0
0 0 0 0 0 0 0 0 0 0 0 0 0 0 0 0 0 0 0 0 0 0 0 0 0 0 0 0 0 0 0 0 0 0 0 0 0 0 0 0 0 0 0
0 0 0 0 0 0 0 0 0 0 0 0 0 0 0 0 0 0 0 0 0 0 0 0 0 0 0 0 0 0 0 0 0 0 0 0 0 0 0 0 0 0 0
0 0 0 0 0 0 0 0 0 0 0 0 0 0 0 0 0 0 0 0 0 0 0 0 0 0 0 0 0 0 0 0 0 0 0 0 0 0 0 0 0 0 0
0 0 0 0 0 0 0 0 0 0 0 0 0 0 0 0 0 0 0 0 0 0 0 0 0 0 0 0 0 0 0 0 0 0 0 0 0 0 0 0 0 0 0
0 0 0 0 0 0 0 0 0 0 0 0 0 0 0 0 0 0 0 0 0 0 0 0 0 0 0 0 0 0 0 0 0 0 0 0 0 0 0 0 0 0 0
0 0 0 0 0 0 0 0 0 0 0 0 0 0 0 0 0 0 0 0 0 0 0 0 0 0 0 0 0 0 0 0 0 0 0 0 0 0 0 0 0 0 0
0 0 0 0 0 0 0 0 0 0 0 0 0 0 0 0 0 0 0 0 0 0 0 0 0 0 0 0 0 0 0 0 0 0 0 0 0 0 0 0 0 0 0
0 0 0 0 0 0 0 0 0 0 0 0 0 0 0 0 0 0 0 0 0 0 0 0 0 0 0 0 0 0 0 0 0 0 0 0 0 0 0 0 0 0 0
0 0 0 0 0 0 0 0 0 0 0 0 0 0 0 0 0 0 0 0 0 0 0 0 0 0 0 0 0 0 0 0 0 0 0 0 0 0 0 0 0 0 0
0 0 0 0 0 0 0 0 0 0 0 0 0 0 0 0 0 0 0 0 0 0 0 0 0 0 0 0 0 0 0 0 0 0 0 0 0 0 0 0 0 0 0
0 0 0 0 0 0 0 0 0 0 0 0 0 0 0 0 0 0 0 0 0 0 0 0 0 0 0 0 0 0 0 0 0 0 0 0 0 0 0 0 0 0 0
0 0 0 0 0 0 0 0 0 0 0 0 0 0 0 0 0 0 0 0 0 0 0 0 0 0 0 0 0 0 0 0 0 0 0 0 0 0 0 0 0 0 0
Wind_Speed
3 2 1 0 1 1 2 3 3 3 4 5 5 5 5 6 5 5 7 7 7 8 7 7 10 10 8 8 7 8 8 8 10 9 8 8 9 10 9 9 9 9 9
2 1 1 1 1 2 3 4 4 4 5 5 5 6 6 7 6 7 9 9 8 9 9 9 11 9 11 9 8 10 9 9 9 11 8 7 9 10 11 11 10 8 6
2 2 2 2 3 3 4 5 5 5 6 6 6 7 7 7 7 8 9 9 9 9 9 10 11 12 12 11 11 11 9 8 8 9 9 7 8 9 10 10 9 5 4
2 3 3 4 4 5 6 6 6 5 6 7 7 7 7 7 7 7 6 7 8 9 10 11 12 13 13 14 12 12 9 8 8 8 10 10 9 9 7 7 6 4 3
3 3 4 5 5 5 6 6 6 6 7 6 6 6 6 5 4 4 4 6 8 10 12 13 13 17 20 15 11 8 8 8 9 9 10 11 10 8 6 5 5 2 2
3 4 4 4 5 6 6 7 7 7 6 5 4 4 3 2 4 8 9 7 9 11 13 13 14 15 16 17 18 17 15 12 11 11 11 12 13 10 6 5 3 3 2
3 4 5 5 6 7 7 7 7 6 4 3 3 3 3 3 7 10 15 11 11 12 12 12 11 11 15 12 14 17 17 19 19 15 14 14 14 10 6 5 5 3 2
4 5 6 6 7 7 6 6 6 4 4 4 5 5 4 6 11 13 18 12 12 12 12 12 12 13 13 13 12 13 13 14 15 12 12 13 12 8 6 4 5 5 3
5 5 6 6 5 5 6 7 6 5 5 5 4 5 6 9 13 16 17 11 11 13 12 12 12 12 15 17 13 12 13 13 12 14 12 7 5 3 5 6 6 4 2
5 5 4 4 5 7 7 6 5 5 5 5 6 6 8 9 13 15 16 8 10 11 11 11 13 12 14 15 10 9 11 12 11 9 4 8 8 9 9 5 3 3 1
3 4 5 6 7 6 5 5 5 5 6 7 8 8 8 9 12 14 17 9 9 10 10 9 8 13 14 14 11 9 11 12 8 2 5 7 8 7 7 7 5 3 2
5 6 6 6 5 5 5 5 5 6 7 8 8 9 7 8 10 13 18 18 16 10 9 8 8 14 15 14 10 10 13 8 0 4 6 7 7 7 7 7 8 8 8
6 6 6 6 6 5 4 5 4 5 6 7 8 8 8 8 9 14 16 18 20 12 9 15 17 16 13 9 10 11 6 2 4 6 8 8 7 7 6 7 9 10 12
7 6 5 5 5 5 4 4 4 5 6 7 8 8 8 8 8 10 10 10 14 12 10 13 15 12 9 8 7 5 5 6 6 8 8 7 6 6 6 6 8 7 8
7 5 5 5 5 5 6 4 5 4 5 7 7 7 8 8 12 18 13 10 10 11 12 7 5 6 7 6 5 6 6 6 7 7 7 7 6 6 6 6 7 6 7
6 4 4 4 5 5 6 6 7 7 9 9 9 8 8 10 16 17 19 18 17 18 10 7 7 7 7 7 6 6 7 7 7 7 7 7 6 6 7 7 6 6 7
6 4 4 5 5 6 6 6 6 7 8 7 10 12 13 15 16 16 17 17 14 13 7 7 7 8 8 7 7 7 7 7 7 7 7 7 7 6 6 7 6 6 7
6 7 6 5 5 5 5 5 5 6 7 7 8 12 15 16 16 16 16 12 9 9 7 7 7 8 8 8 7 7 7 7 7 7 7 7 7 6 6 7 6 7 7
6 5 5 5 4 4 4 5 6 7 7 7 7 9 13 14 13 14 12 8 8 8 8 7 7 7 7 8 7 7 7 7 7 7 7 8 6 6 6 7 7 8 8
5 8 7 5 4 4 5 6 6 7 7 7 7 8 10 9 8 9 8 8 8 9 8 8 7 7 7 7 7 7 7 6 7 7 7 6 6 5 6 7 6 6 7
5 6 8 5 5 5 5 6 6 6 7 7 8 10 14 8 8 10 9 9 9 9 9 8 8 8 7 6 6 7 7 6 6 6 6 5 5 5 5 5 6 6 7
4 4 4 4 4 5 5 5 6 6 7 8 7 9 13 9 8 9 9 9 9 8 8 8 7 7 6 6 5 5 5 5 5 6 6 5 4 4 4 4 5 6 7
4 4 4 4 4 6 6 6 6 7 7 7 8 8 8 8 9 9 9 9 9 9 9 8 8 8 7 6 6 5 5 5 4 5 5 5 4 3 3 5 6 7 6
3 3 3 3 4 5 5 6 6 7 7 7 7 7 8 8 9 10 10 9 9 9 9 9 9 12 14 9 6 5 5 5 4 5 6 5 5 5 5 6 6 7 7
3 2 3 3 3 4 5 6 6 7 7 7 7 7 8 8 9 9 9 10 11 10 12 11 9 10 13 13 11 7 7 7 7 5 5 5 6 6 6 7 6 7 7
4 4 3 3 4 4 4 5 6 6 6 6 7 7 7 8 8 9 9 10 10 10 11 10 13 14 15 12 12 10 7 6 6 5 4 4 5 5 5 5 7 6 7
Wind_Direction
141 139 141 144 10 4 330 303 300 299 301 298 293 291 288 283 271 257 259 267 269 278 287 293 298 300 295 290 279 267 258 254 267 276 273 278 281 284 292 292 289 285 280
164 194 227 271 316 318 301 292 286 284 287 287 289 287 284 279 269 256 261 267 267 275 285 292 295 298 295 293 285 277 269 259 266 278 282 281 282 287 288 287 285 279 266
212 235 260 275 284 285 284 284 282 279 284 284 280 278 279 281 279 271 267 272 273 278 285 289 291 293 292 289 287 282 276 273 270 280 288 284 283 282 283 280 272 255 237
233 253 270 275 275 273 274 277 278 274 273 276 276 277 283 292 294 294 293 290 290 291 292 290 288 286 283 283 283 278 281 287 288 287 287 286 283 278 266 269 260 219 221
257 264 269 273 273 272 275 278 279 272 268 270 280 291 304 309 324 343 332 317 308 306 302 296 291 289 285 284 285 289 293 289 286 284 283 285 283 276 262 248 246 194 208
256 267 274 280 283 282 281 281 282 279 279 282 289 309 333 351 1 355 342 321 315 309 304 301 298 294 292 295 299 299 295 289 286 282 281 278 278 271 258 236 193 176 210
279 288 291 295 294 290 291 293 292 293 300 322 358 11 7 333 336 335 334 330 314 305 299 298 298 296 298 291 290 294 292 285 279 276 273 271 271 265 244 215 189 181 166
298 300 304 303 297 303 316 324 333 353 17 26 26 15 354 328 330 330 331 326 310 302 297 292 289 290 288 287 288 287 285 284 281 275 266 265 264 256 229 193 150 122 105
309 311 313 316 325 354 17 23 27 37 35 25 12 359 344 330 333 332 333 320 310 307 302 293 288 284 287 292 293 290 291 293 294 292 289 277 252 177 136 128 138 139 136
317 325 346 18 50 59 55 45 34 36 26 9 356 347 340 332 329 328 330 315 309 309 308 302 299 294 295 301 301 295 295 301 311 320 6 60 74 78 79 86 108 110 110
347 45 60 66 74 71 61 49 38 29 16 3 352 346 338 325 322 324 326 321 306 303 303 305 303 306 309 309 303 290 286 293 300 335 75 74 72 70 67 64 63 70 82
71 73 65 57 64 66 60 45 33 21 10 359 353 350 340 330 327 327 326 326 325 314 309 308 310 315 316 311 305 296 299 301 58 87 81 74 73 72 72 73 73 72 70
82 72 64 57 49 42 41 28 13 8 2 355 355 351 343 338 334 332 330 330 333 332 321 323 324 323 323 317 314 321 335 50 84 84 80 75 75 80 84 84 79 76 71
88 73 56 46 32 20 15 11 5 359 355 354 354 347 339 336 340 341 337 334 335 336 331 324 323 323 327 326 331 359 43 66 82 88 88 85 81 76 72 74 82 83 84
84 71 53 41 30 19 15 7 4 347 346 347 345 338 335 338 335 333 337 337 338 337 331 329 340 349 356 1 13 38 58 69 77 85 90 89 85 79 70 66 80 84 79
85 65 48 39 32 27 18 9 359 352 342 347 343 340 335 330 330 336 340 339 337 338 342 352 3 4 4 10 25 47 60 67 73 79 85 89 90 86 80 75 75 74 76
88 74 53 43 35 27 21 12 358 346 342 346 342 341 343 340 341 342 342 337 338 345 355 1 7 8 10 16 30 50 64 67 70 75 81 87 90 88 82 82 80 73 72
81 70 61 45 36 26 10 355 348 349 351 352 345 345 346 343 342 344 345 346 355 0 1 4 9 11 14 20 31 46 62 69 70 74 80 86 90 86 78 80 81 80 77
81 67 55 45 35 19 356 350 353 354 355 353 354 356 350 344 344 351 355 3 358 359 2 5 8 13 16 21 30 42 58 69 76 79 84 88 87 79 73 76 80 78 81
75 72 62 47 33 19 6 3 2 360 359 359 3 3 353 351 0 1 3 3 3 2 3 6 8 14 19 22 30 40 53 66 76 83 89 89 84 79 77 77 80 84 84
75 62 56 47 33 19 7 3 0 3 5 4 3 359 358 360 1 1 4 5 5 3 3 4 6 7 14 19 26 38 48 57 69 81 88 87 82 80 78 79 84 89 95
85 69 52 39 27 22 14 5 4 8 8 7 2 358 359 5 5 4 3 3 3 2 2 4 5 4 5 11 19 32 45 56 67 78 86 86 80 75 75 84 90 93 97
93 77 56 39 31 25 25 18 12 10 8 6 2 1 2 3 2 4 2 1 2 3 4 6 7 7 5 7 15 24 39 48 66 83 82 78 78 86 96 101 104 105 100
95 79 58 39 32 29 28 25 20 15 11 7 4 2 360 359 360 3 2 359 360 3 5 6 9 11 13 14 12 16 20 33 58 77 84 79 76 84 98 105 105 107 99
87 70 52 40 36 34 34 33 28 22 17 12 7 3 0 1 2 1 0 359 359 2 5 7 6 7 10 16 17 14 18 41 53 61 76 78 76 76 88 99 103 106 105
84 72 61 55 50 44 39 34 30 25 21 15 10 6 5 5 4 2 1 1 359 0 3 4 4 11 13 14 11 10 19 38 53 53 62 84 88 85 88 94 102 104 110